Location: Sungai Bunut
(2.6333°N, 113.7333°E)
Time: 07:01:56
(UTC+00:00)

Vanguard 3 - Pass Details

Date: 10 December 2023
Orbit: 508 x 3239 km, 33.3° (Epoch: 21 February)

Event Time Altitude Azimuth Distance (km) Brightness Sun altitude
Rises 10:28:01 0° 247° (WSW) 6,975 15.5 -3.4°
Reaches altitude 10° 10:32:41 10° 251° (WSW) 6,094 13.6 -4.5°
Maximum altitude 10:51:53 55° 324° (NW) 3,456 10.4 -8.9°
Drops below altitude 10° 11:07:04 10° 39° (NE) 4,906 10.6 -12.4°
Enters shadow 11:07:40 - 40° (NE) 5,023 10.6 -12.5°
Sets 11:10:25 0° 44° (NE) 5,594 - -13.2°
